FW8325 Weather Reports


Display with metric or nautical units.
time (UTC)temp
F
wind
direction
speed
MPH
gust
MPH
rain 1hr
in
rain 24hr
in
rain mn
in
humidity
%
barometer
mb
20260506180625 39 119 0.0 0.0 0.01 0.09 0.09 62 1019.2
20260506175628 39 120 0.0 0.0 0.02 0.09 0.09 62 1019.2
20260506174631 38 134 0.0 0.0 0.02 0.09 0.09 64 1019.2
20260506173629 38 120 0.0 0.0 0.02 0.09 0.09 64 1019.1
20260506172629 38 118 0.0 1.0 0.02 0.09 0.09 62 1019.2
20260506171627 38 119 0.0 0.0 0.02 0.09 0.09 68 1019.2
20260506170626 38 111 0.0 1.0 0.01 0.08 0.08 64 1019.2
20260506165629 38 115 0.0 0.0 0.00 0.08 0.07 67 1019.2
20260506164628 37 144 0.0 0.0 0.00 0.08 0.07 70 1019.1
20260506163629 37 133 0.0 3.0 0.00 0.08 0.07 68 1019.0
20260506162648 37 148 0.0 1.0 0.00 0.08 0.07 69 1019.0
20260506161626 36 142 0.0 1.0 0.00 0.08 0.07 71 1019.0
20260506160627 36 161 0.0 1.0 0.00 0.08 0.07 73 1018.9
20260506155625 36 175 0.0 1.0 0.00 0.22 0.07 72 1018.9
20260506154623 36 142 0.0 0.0 0.01 0.22 0.07 72 1018.9
20260506153622 35 131 0.0 0.0 0.01 0.22 0.07 74 1018.8
20260506152620 35 150 0.0 0.0 0.04 0.22 0.07 75 1018.8
20260506151625 35 184 0.0 1.0 0.04 0.22 0.07 77 1018.6
20260506150627 34 171 0.0 4.0 0.04 0.22 0.07 79 1018.6
20260506145646 34 173 0.0 4.0 0.04 0.28 0.07 80 1018.6
20260506144623 34 175 0.0 0.0 0.03 0.27 0.06 79 1018.5
20260506143641 34 177 0.0 0.0 0.03 0.27 0.06 79 1018.6
20260506142622 34 229 0.0 0.0 0.00 0.24 0.03 81 1018.4
20260506141622 33 220 0.0 0.0 0.00 0.24 0.03 82 1018.3
20260506140620 32 227 0.0 0.0 0.00 0.24 0.03 82 1018.2
20260506135622 33 214 0.0 1.0 0.00 0.36 0.03 83 1018.2
20260506134640 33 219 0.0 4.0 0.00 0.36 0.03 83 1018.1
20260506133623 33 216 1.0 6.0 0.00 0.36 0.03 82 1018.0
20260506132621 32 209 2.0 5.0 0.00 0.36 0.03 82 1017.8
20260506131619 33 209 1.0 4.0 0.00 0.36 0.03 82 1017.5
20260506130619 33 186 0.0 2.0 0.00 0.36 0.03 84 1017.3
20260506125616 33 220 0.0 0.0 0.00 0.38 0.03 84 1017.1
20260506124621 33 223 0.0 4.0 0.00 0.38 0.03 83 1017.0
20260506123620 33 186 1.0 5.0 0.00 0.38 0.03 83 1016.9
20260506122617 33 199 0.0 1.0 0.00 0.38 0.03 84 1016.8
20260506121616 33 230 0.0 0.0 0.00 0.38 0.03 85 1016.7
20260506120632 33 225 0.0 0.0 0.00 0.38 0.03 84 1016.5
20260506115632 32 230 0.0 0.0 0.00 0.43 0.03 85 1016.4
20260506114632 31 221 0.0 0.0 0.00 0.43 0.03 87 1016.3
20260506113631 31 246 0.0 0.0 0.00 0.43 0.03 87 1016.1
20260506112630 31 230 0.0 0.0 0.00 0.43 0.03 87 1016.0
20260506111629 31 230 0.0 0.0 0.00 0.43 0.03 84 1015.9
20260506110626 32 232 0.0 0.0 0.00 0.43 0.03 85 1015.7
20260506105633 33 233 0.0 1.0 0.00 0.46 0.03 84 1015.6
20260506104632 33 219 0.0 1.0 0.00 0.46 0.03 85 1015.6
20260506103651 33 163 0.0 0.0 0.00 0.46 0.03 85 1015.6
20260506102626 33 171 0.0 7.0 0.00 0.46 0.03 85 1015.6
20260506101625 34 232 0.0 3.0 0.00 0.46 0.03 86 1015.6
20260506100629 33 163 0.0 2.0 0.00 0.46 0.03 88 1015.4
20260506095628 33 223 0.0 0.0 0.00 0.60 0.03 85 1015.4
20260506094647 34 214 0.0 1.0 0.00 0.60 0.03 84 1015.5
20260506093623 34 165 0.0 4.0 0.00 0.60 0.03 83 1015.5
20260506092622 34 157 0.0 3.0 0.00 0.60 0.03 85 1015.4
20260506091625 34 157 0.0 4.0 0.00 0.60 0.03 86 1015.2
20260506090644 34 163 0.0 8.0 0.01 0.60 0.03 88 1015.4
20260506085623 33 186 2.0 15.0 0.01 0.60 0.03 90 1015.2
20260506084622 33 217 5.0 11.0 0.01 0.60 0.03 91 1015.3
20260506083622 33 211 4.0 18.0 0.01 0.60 0.03 92 1015.5
20260506082623 33 207 4.0 17.0 0.01 0.60 0.03 92 1015.6
20260506081623 33 211 6.0 17.0 0.01 0.60 0.03 92 1015.6
20260506080622 33 207 4.0 14.0 0.00 0.59 0.02 92 1016.0
20260506072657 34 142 1.0 7.0 0.02 0.61 0.02 90 1016.4
20260506071634 34 132 2.0 11.0 0.02 0.61 0.02 90 1016.1
20260506070635 34 207 2.0 11.0 0.01 0.60 0.01 90 1015.9
20260506061624 38 104 3.0 27.0 0.00 0.59 0.00 82 1014.5
20260506060632 38 113 8.0 27.0 0.00 0.59 0.00 78 1014.6
20260506050625 41 96 17.0 31.0 0.00 0.59 0.59 75 1012.0
20260506044621 44 91 17.0 32.0 0.00 0.59 0.59 76 1010.9
20260506043641 46 102 10.0 25.0 0.00 0.59 0.59 71 1010.6
20260506042622 49 286 0.0 0.0 0.00 0.59 0.59 58 1009.8
20260506041623 48 300 0.0 0.0 0.00 0.59 0.59 64 1009.7
20260506040621 48 276 0.0 0.0 0.00 0.59 0.59 66 1009.6
20260506035640 48 259 0.0 1.0 0.00 0.59 0.59 65 1009.4
20260506034616 48 261 0.0 1.0 0.00 0.59 0.59 66 1009.2
20260506033620 50 267 0.0 1.0 0.00 0.59 0.59 61 1009.1
20260506032637 52 286 0.0 5.0 0.00 0.59 0.59 48 1008.9
20260506031653 50 286 1.0 6.0 0.00 0.59 0.59 63 1008.9
20260506030630 50 288 0.0 0.0 0.00 0.59 0.59 60 1008.5
20260506025630 49 299 0.0 0.0 0.00 0.59 0.59 60 1008.4
20260506024651 48 266 0.0 1.0 0.00 0.59 0.59 62 1008.3
20260506023632 49 265 0.0 1.0 0.00 0.59 0.59 59 1008.2
20260506022631 50 268 0.0 0.0 0.00 0.59 0.59 54 1008.0
20260506021628 52 273 0.0 0.0 0.00 0.59 0.59 43 1007.9
20260506020627 53 340 0.0 4.0 0.00 0.59 0.59 39 1007.6
20260506015625 53 26 0.0 8.0 0.00 0.59 0.59 41 1007.6
20260506014629 54 355 1.0 12.0 0.00 0.59 0.59 49 1007.5
20260506013626 55 348 6.0 12.0 0.00 0.59 0.59 47 1007.5
20260506012626 55 336 1.0 15.0 0.00 0.59 0.59 40 1007.4
20260506011625 56 5 7.0 17.0 0.00 0.59 0.59 52 1007.4
20260506010628 56 360 8.0 18.0 0.00 0.59 0.59 50 1007.3
20260506005647 56 355 9.0 13.0 0.00 0.59 0.59 50 1007.3
20260506004623 57 9 8.0 16.0 0.00 0.59 0.59 50 1007.3
20260506003624 56 19 0.0 11.0 0.00 0.59 0.59 43 1007.1
20260506002623 56 11 0.0 5.0 0.00 0.59 0.59 43 1007.0
20260506001625 55 345 0.0 2.0 0.00 0.59 0.59 43 1007.1
20260506000634 56 28 0.0 0.0 0.00 0.59 0.59 55 1007.1
20260505235635 54 38 0.0 10.0 0.00 0.59 0.59 60 1007.0
20260505234635 53 66 0.0 2.0 0.00 0.59 0.59 62 1007.0
20260505233633 54 76 1.0 3.0 0.00 0.59 0.59 66 1007.0
20260505232616 54 57 0.0 1.0 0.00 0.59 0.59 59 1006.8
20260505231635 53 27 0.0 0.0 0.00 0.59 0.59 61 1006.8
20260505230651 54 69 0.0 1.0 0.00 0.59 0.59 56 1006.9
20260505225630 53 79 0.0 1.0 0.00 0.59 0.59 65 1006.9
20260505224629 51 121 0.0 2.0 0.00 0.59 0.59 71 1006.9
20260505223629 51 117 0.0 4.0 0.00 0.59 0.59 70 1007.0
20260505222651 50 109 0.0 6.0 0.00 0.59 0.59 76 1007.2
20260505221630 50 103 1.0 3.0 0.00 0.59 0.59 76 1007.1
20260505220632 50 114 2.0 6.0 0.00 0.59 0.59 73 1007.3
20260505215648 50 103 2.0 4.0 0.00 0.59 0.59 74 1007.5
20260505214626 49 116 3.0 6.0 0.00 0.59 0.59 74 1007.7
20260505213628 49 115 3.0 7.0 0.00 0.59 0.59 74 1007.9
20260505212647 49 113 1.0 4.0 0.00 0.59 0.59 75 1008.2
20260505211625 48 115 1.0 7.0 0.00 0.59 0.59 74 1008.4
20260505210624 48 112 1.0 6.0 0.00 0.59 0.59 75 1008.4
20260505205625 48 115 1.0 3.0 0.00 0.59 0.59 76 1008.6
20260505204629 47 112 1.0 7.0 0.00 0.59 0.59 75 1008.8
20260505203629 47 115 2.0 6.0 0.00 0.59 0.59 76 1008.9
20260505202629 47 113 3.0 7.0 0.00 0.59 0.59 76 1009.2
20260505201626 46 114 2.0 10.0 0.00 0.59 0.59 78 1009.2
20260505200623 46 123 4.0 12.0 0.00 0.59 0.59 78 1009.2
20260505195627 46 112 3.0 11.0 0.00 0.59 0.59 78 1009.4
20260505194625 45 112 3.0 15.0 0.00 0.59 0.59 78 1009.4
20260505193623 45 117 6.0 15.0 0.00 0.59 0.59 79 1009.6
20260505192623 44 131 1.0 15.0 0.00 0.59 0.59 80 1009.8
20260505191627 44 114 12.0 16.0 0.00 0.59 0.59 81 1009.9
20260505190625 44 136 12.0 18.0 0.00 0.59 0.59 82 1009.9
20260505185623 44 117 12.0 15.0 0.00 0.59 0.59 80 1010.1
20260505184641 44 126 9.0 12.0 0.00 0.59 0.59 79 1010.0
20260505183617 44 131 5.0 13.0 0.00 0.59 0.59 80 1010.1
20260505182631 43 119 4.0 11.0 0.00 0.59 0.59 81 1010.2
20260505181624 42 130 7.0 11.0 0.00 0.59 0.59 82 1010.3